Showing default

BB3, 57760

Orbit data source: Space-Track

BB3, 57760 is a payload satellite owned by SDA (US) in LEO that was launched on Sat, 02 Sep 2023 UTC via an FALCON 9 launch vehicle from the Air Force Western Test Range (AFWTR). Payload-class satellites include a variety of spacecraft equipped with specific instruments for various scientific and technological missions. These include communications satellites like Starlink; space stations such as the ISS; scientific satellites like the Hubble; Earth observation satellites from companies like Planet Labs, Umbra, and HawkEye 360; GPS; miniature CubeSats for education and research; and military/defense satellites.

Loading next visibility...
Identifier
57760, 2023-133D
Orbit
LEO
Country
Flag of USUS
Related business
Manufacturer
SPX/LEIDOS
Mission
Operational Defense Early Warn
Bus & Motor
STARSHIELD?, Unknown motor
Mass
~800 kg wet, ~800 kg dry
Launch date (UTC)
2023-09-02 (3 years ago)
Launch vehicle
FALCON 9
Launch site
Air Force Western Test Range (AFWTR)
Object type
Payload
Rocket body
Debris
Shape & HBR
Box + 1 Pan, 4.5 m
Radar Cross Section
12.397 m², Large (>1 m²)

Expand to show TLE details & history
Last TLE update: 6 days ago

TLE from 6 days ago
0 BB3
1 57760U 23133D   26167.22521328  .00000391  00000-0  73371-4 0  9992
2 57760  80.9769 351.0285 0104971 306.2087  52.9438 14.59571927141926
Epoch: 2026-06-16T05:24Z
TLE epoch observation values (Epoch: 2026-06-16T05:24:18.427Z)
Latitude
-0.00003°
Longitude
5.45141°
Altitude
653.269 km
Speed
7.554 km/s
True Right ascension
23h 24m 06s
True Declination
0° 00' 00"
Sunlit
Object was in daylight at epoch
Visualization orbit readout
Latitude
Unknown
Longitude
Unknown
Altitude
Unknown
Speed
Unknown
Apparent Right ascension
Unknown
Apparent Declination
Unknown
Sunlit
N/A
Visualization observer readout
Local Sidereal Time
00:50:19
Azimuth
Unknown
Elevation
Unknown
Doppler factor
Unknown
Orbital elements
Apogee altitude
765.89 km
Perigee altitude
617.465 km
Semi-major axis
7,069.815 km
Eccentricity
0.0105
Inclination
80.9769°
RAAN
351.0285°
Arg. of periapsis
306.2087°
True anomaly
53.91135°
Mean anomaly
52.9438°
Eccentric anomaly
53.42681°
Mean motion
3.65116 °/min
Orbital period
98.6 mins
BSTAR
0.000073371
Loading maneuver chart data...
Computing Atmospheric mass density...
Loading historical data...
Loading historical data...
Loading historical data...
Loading historical data...
Loading historical data...
Loading historical data...
Loading historical data...

Documentation

Showing up to 5 results
|